Location: Chequamegon National Forest
(46.1070°N, 90.8420°W)
Time: 12:12:34
(UTC-06:00)

Amateur Radio Satellites - All Passes

Search period start: 22 January 2017 11:42
Search period end: 23 January 2017 11:42
Location: Chequamegon National Forest, 46.1070°N, 90.8420°W

Satellite Date Start Highest point End Downlink Frequencies (MHz)
Time Altitude Azimuth
QB50P2 22 Jan 11:43:14 11:46:44 25° 265° (W) 11:50:16 145.880/145.840
ESTCUBE 1 22 Jan 11:43:48 11:48:23 87° 105° (ESE) 11:52:54 437.505/2401.250
VELOX 1 22 Jan 11:45:57 11:49:57 34° 97° (E) 11:53:57 145.980
HUMSAT D 22 Jan 11:54:21 11:56:11 13° 300° (WNW) 11:58:00 437.325/437.525
SPROUT 22 Jan 11:58:22 12:02:16 34° 97° (E) 12:06:10 437.525
AO-7 22 Jan 12:04:55 12:09:33 16° 40° (NE) 12:14:11 29.400- 29.500
POPSAT HIP 1 22 Jan 12:05:05 12:07:51 17° 268° (W) 12:10:38 437.405
UKube-1 22 Jan 12:06:05 12:09:16 20° 93° (E) 12:12:25 .
BY70-1 22 Jan 12:08:05 12:10:20 17° 295° (WNW) 12:12:30 436.1900
DX 1 22 Jan 12:10:54 12:14:44 30° 96° (E) 12:18:32 434.975-435.025
DUCHIFAT 1 22 Jan 12:13:16 12:15:53 16° 269° (W) 12:18:29 145.980
Oscar 19 22 Jan 12:17:27 12:22:35 63° 72° (ENE) 12:27:44 437.125/150
NANOSAT C BR1 22 Jan 12:20:54 12:22:45 13° 271° (W) 12:24:36 145.865
Cosmos 2491 22 Jan 12:21:58 12:30:34 54° 74° (ENE) 12:39:08 435.465 / 435.565
AIST 1 22 Jan 12:23:54 12:25:36 12° 83° (E) 12:27:19
CUBEBUG 1 22 Jan 12:26:37 12:30:52 56° 288° (WNW) 12:35:04 437.445
YUBILEINY 22 Jan 12:32:38 12:39:10 24° 78° (ENE) 12:45:42 435.215
BUGSAT 1 22 Jan 12:38:09 12:41:16 21° 266° (W) 12:44:23 437.445
AO-85 22 Jan 12:41:11 12:44:58 25° 115° (ESE) 12:48:34 145.980
AISAT 22 Jan 12:48:54 12:53:11 52° 289° (WNW) 12:57:25 437.250
Gurwin Techsat 1B 22 Jan 12:49:10 12:54:25 66° 72° (ENE) 12:59:42 435.225
50 SAT 22 Jan 12:52:57 12:56:24 49° 287° (WNW) 12:59:49 437.505
DANDE 22 Jan 12:53:11 12:58:48 21° 60° (ENE) 13:04:44 436.750
ITAMSAT 1 22 Jan 13:06:37 13:10:35 23° 61° (ENE) 13:14:34 435.822/435.867
TISAT 1 22 Jan 13:18:23 13:22:16 36° 98° (E) 13:26:08 437.305
ESTCUBE 1 22 Jan 13:22:33 13:24:30 13° 302° (WNW) 13:26:27 437.505/2401.250
VELOX 1 22 Jan 13:22:37 13:26:18 27° 295° (WNW) 13:29:58 145.980
CUSAT 1 22 Jan 13:23:02 13:31:02 65° 75° (ENE) 13:38:23 437.405
BEESAT 22 Jan 13:28:44 13:29:46 11° 87° (E) 13:30:46 436.000
SWISSCUBE 22 Jan 13:29:42 13:31:45 13° 88° (E) 13:33:49 437.505
SPROUT 22 Jan 13:34:35 13:38:02 24° 294° (WNW) 13:41:30 437.525
UKube-1 22 Jan 13:41:24 13:45:29 43° 291° (WNW) 13:49:33 .
SO-50 22 Jan 13:46:40 13:49:10 14° 28° (NNE) 13:51:39 436.795
DX 1 22 Jan 13:47:06 13:50:52 29° 294° (WNW) 13:54:36 434.975-435.025
AO-7 22 Jan 13:52:29 14:00:34 56° 62° (ENE) 14:08:41 29.400- 29.500
AIST 1 22 Jan 13:58:15 14:02:36 68° 280° (W) 14:06:57
Oscar 19 22 Jan 13:58:43 14:02:20 19° 269° (W) 14:05:58 437.125/150
Cosmos 2504 22 Jan 14:14:38 14:22:55 54° 91° (E) 14:30:41 435.465 / 435.565
Cosmos 2491 22 Jan 14:19:17 14:27:06 38° 275° (W) 14:34:57 435.465 / 435.565
AO-85 22 Jan 14:20:46 14:25:12 46° 312° (NW) 14:29:21 145.980
YUBILEINY 22 Jan 14:26:05 14:34:55 81° 279° (W) 14:43:51 435.215
ITUPSAT 1 22 Jan 14:30:28 14:35:03 42° 98° (E) 14:39:35 437.325
O/OREOS (USA 219) 22 Jan 14:30:56 14:34:44 26° 54° (NE) 14:38:31 437.305
Gurwin Techsat 1B 22 Jan 14:31:15 14:34:51 18° 270° (W) 14:38:28 435.225
DANDE 22 Jan 14:34:44 14:42:36 79° 78° (ENE) 14:51:00 436.750
MOZHAYETS 4 22 Jan 14:39:23 14:42:34 18° 91° (E) 14:45:46
ITAMSAT 1 22 Jan 14:44:37 14:49:41 55° 259° (W) 14:54:46 435.822/435.867
TISAT 1 22 Jan 14:54:26 14:57:43 23° 295° (WNW) 15:01:00 437.305
BEESAT 22 Jan 15:03:25 15:08:15 87° 105° (ESE) 15:13:03 436.000
SWISSCUBE 22 Jan 15:05:19 15:10:09 82° 285° (WNW) 15:14:57 437.505
CUSAT 1 22 Jan 15:05:41 15:12:25 31° 275° (W) 15:18:42 437.405
HORYU 2 22 Jan 15:13:55 15:16:02 13° 58° (ENE) 15:18:09 437.375
GOMX 1 22 Jan 15:19:22 15:22:28 16° 60° (ENE) 15:25:29 467.674
BRITE-PL 22 Jan 15:24:54 15:30:08 40° 68° (ENE) 15:35:15 437.365/2234.400
SO-50 22 Jan 15:26:06 15:30:36 59° 49° (NE) 15:35:00 436.795
AO-7 22 Jan 15:45:59 15:53:36 38° 263° (W) 16:01:19 29.400- 29.500
DOVE 4 22 Jan 15:48:22 15:49:38 11° 58° (ENE) 15:50:53 437.250
BEESAT 3 22 Jan 15:48:50 15:52:41 60° 122° (ESE) 15:56:35 437.485
STARS 22 Jan 15:49:47 15:51:47 13° 89° (E) 15:53:47 437.465
AO-85 22 Jan 16:05:16 16:06:36 11° 332° (NNW) 16:07:55 145.980
ITUPSAT 1 22 Jan 16:08:43 16:12:40 26° 296° (WNW) 16:16:37 437.325
Cosmos 2504 22 Jan 16:08:49 16:16:33 37° 290° (WNW) 16:23:54 435.465 / 435.565
O/OREOS (USA 219) 22 Jan 16:10:03 16:14:16 39° 253° (WSW) 16:18:28 437.305
CUTE-I 22 Jan 16:13:08 16:17:11 23° 61° (ENE) 16:21:14 437.470
MOZHAYETS 4 22 Jan 16:15:31 16:20:04 54° 288° (WNW) 16:24:36
DANDE 22 Jan 16:18:27 16:24:44 27° 276° (W) 16:31:17 436.750
LilacSat-2 22 Jan 16:19:36 16:22:09 18° 65° (ENE) 16:24:44 437.200
YUBILEINY 22 Jan 16:27:08 16:33:17 20° 303° (WNW) 16:39:30 435.215
M-CUBED/EXP-1 PRIME 22 Jan 16:31:08 16:34:29 64° 108° (ESE) 16:37:43 437.505
KKS-1 22 Jan 16:37:46 16:42:14 85° 107° (ESE) 16:46:39 437.445
BEESAT 2 22 Jan 16:38:45 16:42:42 87° 126° (SE) 16:46:44 435.950
BEESAT 22 Jan 16:42:58 16:45:20 14° 303° (WNW) 16:47:43 436.000
SWISSCUBE 22 Jan 16:45:18 16:47:09 12° 304° (NW) 16:49:00 437.505
HORYU 2 22 Jan 16:47:34 16:51:58 78° 257° (WSW) 16:56:25 437.375
HO-68 22 Jan 16:49:08 16:53:46 19° 50° (NE) 16:58:23 435.675
GOMX 1 22 Jan 16:54:36 16:59:58 83° 258° (WSW) 17:05:04 467.674
Cubesat XI-IV 22 Jan 16:55:49 17:00:54 48° 68° (ENE) 17:06:00 437.490
NOAA 15 22 Jan 16:56:00 17:01:07 52° 69° (ENE) 17:06:17 137.62
CINEMA 3 22 Jan 16:59:10 17:00:39 12° 60° (ENE) 17:02:07 145.822/145.860
BRITE-PL 22 Jan 17:03:26 17:08:35 35° 265° (W) 17:13:40 437.365/2234.400
AUBIESAT-1 22 Jan 17:05:45 17:09:04 56° 292° (WNW) 17:12:17 437.475
SO-50 22 Jan 17:07:28 17:10:38 19° 248° (WSW) 17:13:47 436.795
CUBESAT XI-V 22 Jan 17:07:33 17:12:17 86° 104° (ESE) 17:16:57 437.345
NOAA 18 22 Jan 17:19:42 17:24:56 47° 68° (ENE) 17:30:11 137.9125
DOVE 4 22 Jan 17:21:43 17:26:38 78° 75° (ENE) 17:31:17 437.250
STARS 22 Jan 17:24:15 17:28:36 69° 287° (WNW) 17:32:56 437.465
GONETS M04 22 Jan 17:26:22 17:27:46 10° 68° (ENE) 17:29:10
BEESAT 3 22 Jan 17:27:43 17:30:39 20° 322° (NW) 17:33:37 437.485
CUTE 1.7 + AOD 2 22 Jan 17:35:59 17:38:33 16° 62° (ENE) 17:41:07 437.475
CUTE-I 22 Jan 17:51:37 17:56:50 58° 259° (W) 18:02:05 437.470
LilacSat-2 22 Jan 17:52:36 17:56:10 39° 262° (W) 17:59:46 437.200
CANX-2 22 Jan 18:04:14 18:08:02 33° 69° (ENE) 18:11:54 2200.000
M-CUBED/EXP-1 PRIME 22 Jan 18:08:10 18:08:28 10° 306° (NW) 18:08:46 437.505
SEEDS 22 Jan 18:10:34 18:13:56 23° 66° (ENE) 18:17:20 437.485
COMPASS 1 22 Jan 18:11:57 18:14:38 17° 63° (ENE) 18:17:21 437.405
STRAND 1 22 Jan 18:15:36 18:18:38 16° 89° (E) 18:21:38 437.568
KKS-1 22 Jan 18:16:16 18:18:08 13° 302° (WNW) 18:20:00 437.445
BEESAT 2 22 Jan 18:18:31 18:21:04 16° 325° (NW) 18:23:38 435.950
AAUSAT CUBESAT 2 22 Jan 18:20:46 18:23:21 16° 62° (ENE) 18:25:57 437.432
Cosmos 2499 22 Jan 18:21:53 18:28:58 33° 85° (E) 18:35:38 435.465 / 435.565
CINEMA 3 22 Jan 18:32:51 18:37:13 83° 259° (WSW) 18:41:28 145.822/145.860
HO-68 22 Jan 18:33:12 18:40:23 76° 70° (ENE) 18:47:36 435.675
Cubesat XI-IV 22 Jan 18:36:52 18:41:12 25° 267° (W) 18:45:33 437.490
GOMX 1 22 Jan 18:36:57 18:38:41 11° 273° (W) 18:40:24 467.674
NOAA 15 22 Jan 18:36:59 18:41:11 24° 267° (W) 18:45:25 137.62
Oscar 11 22 Jan 18:44:49 18:46:43 13° 59° (ENE) 18:48:36 145.826/435.025
CUBESAT XI-V 22 Jan 18:46:46 18:48:58 13° 302° (WNW) 18:51:11 437.345
AIST 2 22 Jan 18:58:35 19:02:35 54° 121° (ESE) 19:06:42 435.215
NOAA 18 22 Jan 19:01:10 19:05:48 27° 265° (W) 19:10:26 137.9125
DOVE 4 22 Jan 19:02:32 19:04:47 13° 271° (W) 19:07:00 437.250
CUTE 1.7 + AOD 2 22 Jan 19:09:44 19:13:55 59° 260° (W) 19:18:10 437.475
CUBEBUG 2 22 Jan 19:10:44 19:14:49 60° 73° (ENE) 19:18:55 437.445
GONETS M04 22 Jan 19:14:03 19:22:26 56° 90° (E) 19:30:56
FUNcube-1 22 Jan 19:22:35 19:26:10 29° 67° (ENE) 19:29:47 145.935
UWE-3 22 Jan 19:33:42 19:37:47 68° 75° (ENE) 19:41:57 435.000/436.395/437.385
CANX-2 22 Jan 19:40:23 19:43:56 25° 266° (W) 19:47:31 2200.000
SEEDS 22 Jan 19:45:32 19:49:26 36° 263° (W) 19:53:24 437.485
COMPASS 1 22 Jan 19:45:40 19:49:46 53° 260° (W) 19:53:56 437.405
ZACube-1 22 Jan 19:46:39 19:50:41 56° 73° (ENE) 19:54:48 437.345
STRAND 1 22 Jan 19:53:13 19:58:22 74° 287° (WNW) 20:03:30 437.568
AAUSAT CUBESAT 2 22 Jan 19:54:17 19:58:23 55° 260° (W) 20:02:32 437.432
Cosmos 2499 22 Jan 20:13:36 20:21:45 57° 284° (WNW) 20:29:20 435.465 / 435.565
Oscar 11 22 Jan 20:17:54 20:22:14 79° 259° (W) 20:26:35 145.826/435.025
HO-68 22 Jan 20:23:21 20:28:48 23° 269° (W) 20:34:18 435.675
ISS 22 Jan 20:35:37 20:37:24 14° 134° (SE) 20:39:11 145.825
AIST 2 22 Jan 20:38:02 20:41:22 23° 321° (NW) 20:44:45 435.215
DELFI C3 22 Jan 20:48:21 20:52:21 78° 76° (ENE) 20:56:24 145.870
CUBEBUG 2 22 Jan 20:49:54 20:51:52 13° 271° (W) 20:53:49 437.445
BY70-1 22 Jan 20:56:16 20:56:35 10° 61° (ENE) 20:56:53 436.1900
FUNcube-1 22 Jan 20:58:52 21:02:24 27° 266° (W) 21:05:58 145.935
TIGRISAT 22 Jan 21:01:52 21:03:34 12° 88° (E) 21:05:18 435.000
AO-85 22 Jan 21:09:30 21:13:16 40° 47° (NE) 21:16:57 145.980
HUMSAT D 22 Jan 21:10:08 21:14:14 74° 74° (ENE) 21:18:25 437.325/437.525
ESTCUBE 1 22 Jan 21:11:24 21:13:44 14° 59° (ENE) 21:16:05 437.505/2401.250
GONETS M04 22 Jan 21:11:45 21:19:38 37° 292° (WNW) 21:27:38
PRISM 22 Jan 21:12:05 21:16:03 44° 99° (E) 21:19:57 437.425
UWE-3 22 Jan 21:13:17 21:14:46 12° 272° (W) 21:16:15 435.000/436.395/437.385
ANTELSAT 22 Jan 21:16:38 21:19:45 18° 92° (E) 21:22:53 437.575/2403.000
ZACube-1 22 Jan 21:25:08 21:27:22 14° 271° (W) 21:29:37 437.345
STRAND 1 22 Jan 21:34:43 21:36:39 12° 306° (NW) 21:38:37 437.568
CUBEBUG 1 22 Jan 21:49:52 21:52:58 19° 63° (ENE) 21:56:03 437.445
RS-15 22 Jan 22:02:42 22:12:52 35° 105° (ESE) 22:23:20 29.354- 29.394
ISS 22 Jan 22:10:11 22:13:27 85° 150° (SSE) 22:16:42 145.825
AISAT 22 Jan 22:13:02 22:16:26 22° 64° (ENE) 22:19:50 437.250
Cosmos 2499 22 Jan 22:13:44 22:16:42 12° 307° (NW) 22:19:37 435.465 / 435.565
JAS-2 22 Jan 22:19:58 22:26:39 38° 95° (E) 22:33:44 435.910
BY70-1 22 Jan 22:23:13 22:26:16 57° 259° (WSW) 22:29:33 436.1900
UNISAT 6 22 Jan 22:23:48 22:28:17 86° 104° (ESE) 22:32:50 437.425
BEESAT 3 22 Jan 22:26:48 22:29:08 15° 34° (NNE) 22:31:27 437.485
TIGRISAT 22 Jan 22:36:19 22:40:46 77° 285° (WNW) 22:45:18 435.000
YUBILEINY 22 Jan 22:38:36 22:42:51 14° 50° (NE) 22:47:05 435.215
VELOX 1 22 Jan 22:45:18 22:49:28 41° 69° (ENE) 22:53:40 145.980
ESTCUBE 1 22 Jan 22:45:23 22:49:55 78° 256° (WSW) 22:54:31 437.505/2401.250
PRISM 22 Jan 22:48:08 22:51:02 19° 297° (WNW) 22:53:55 437.425
HUMSAT D 22 Jan 22:49:21 22:50:23 11° 273° (W) 22:51:26 437.325/437.525
AO-85 22 Jan 22:50:24 22:53:25 21° 246° (WSW) 22:56:25 145.980
ANTELSAT 22 Jan 22:52:24 22:56:43 50° 288° (WNW) 23:01:06 437.575/2403.000
SPROUT 22 Jan 22:54:00 22:57:54 36° 69° (ENE) 23:01:49 437.525
UKube-1 22 Jan 23:02:49 23:06:18 24° 65° (ENE) 23:09:47 .
DX 1 22 Jan 23:08:33 23:12:33 36° 68° (ENE) 23:16:34 434.975-435.025
BEESAT 2 22 Jan 23:17:09 23:20:04 19° 37° (NE) 23:23:00 435.950
QB50P1 22 Jan 23:18:20 23:22:10 33° 97° (E) 23:25:59 145.935-145.965
POLYITAN 1 22 Jan 23:23:18 23:27:15 37° 98° (E) 23:31:12 437.675
CUBEBUG 1 22 Jan 23:24:36 23:28:54 50° 260° (W) 23:33:12 437.445
QB50P2 22 Jan 23:24:37 23:28:38 41° 98° (E) 23:32:39 145.880/145.840
50 SAT 22 Jan 23:29:23 23:32:57 88° 249° (WSW) 23:36:33 437.505
Cosmos 2491 22 Jan 23:38:29 23:39:49 10° 68° (ENE) 23:41:09 435.465 / 435.565
POPSAT HIP 1 22 Jan 23:45:18 23:49:30 63° 102° (ESE) 23:53:42 437.405
ISS 22 Jan 23:47:11 23:50:11 32° 351° (N) 23:53:10 145.825
PCSat 22 Jan 23:48:16 23:53:20 43° 114° (ESE) 23:58:27 145.827
AISAT 22 Jan 23:48:24 23:52:38 43° 261° (W) 23:56:53 437.250
DUCHIFAT 1 22 Jan 23:52:37 23:56:48 65° 102° (ESE) 00:00:58 145.980
NANOSAT C BR1 22 Jan 23:59:37 00:03:51 85° 104° (ESE) 00:08:05 145.865
UNISAT 6 23 Jan 00:02:30 00:04:22 12° 301° (WNW) 00:06:14 437.425
AIST 1 23 Jan 00:02:43 00:06:41 36° 74° (ENE) 00:10:37
BEESAT 3 23 Jan 00:03:22 00:07:23 81° 52° (NE) 00:11:23 437.485
JAS-2 23 Jan 00:04:52 00:11:47 53° 292° (WNW) 00:19:14 435.910
Cosmos 2504 23 Jan 00:05:13 00:10:32 21° 60° (ENE) 00:15:42 435.465 / 435.565
TISAT 1 23 Jan 00:12:10 00:16:01 38° 69° (ENE) 00:19:53 437.305
RS-15 23 Jan 00:12:15 00:24:16 79° 309° (NW) 00:36:45 29.354- 29.394
BUGSAT 1 23 Jan 00:16:03 00:19:54 41° 99° (E) 00:23:46 437.445
TIGRISAT 23 Jan 00:16:17 00:16:42 10° 303° (WNW) 00:17:08 435.000
VELOX 1 23 Jan 00:22:39 00:26:06 22° 267° (W) 00:29:32 145.980
Oscar 19 23 Jan 00:27:29 00:30:57 18° 90° (E) 00:34:24 437.125/150
SPROUT 23 Jan 00:30:33 00:33:55 23° 266° (W) 00:37:19 437.525
YUBILEINY 23 Jan 00:33:15 00:41:58 59° 75° (ENE) 00:50:35 435.215
BEESAT 23 Jan 00:36:21 00:39:34 18° 60° (ENE) 00:42:48 436.000
SWISSCUBE 23 Jan 00:37:56 00:41:26 21° 62° (ENE) 00:44:58 437.505
UKube-1 23 Jan 00:38:09 00:42:09 37° 262° (W) 00:46:11 .
DX 1 23 Jan 00:45:15 00:48:49 24° 265° (W) 00:52:25 434.975-435.025
BEESAT 2 23 Jan 00:54:15 00:58:18 70° 237° (WSW) 01:02:18 435.950
QB50P1 23 Jan 00:54:20 00:57:48 25° 294° (WNW) 01:01:17 145.935-145.965
POLYITAN 1 23 Jan 00:59:31 01:02:51 23° 295° (WNW) 01:06:11 437.675
QB50P2 23 Jan 01:01:00 01:04:11 21° 296° (WNW) 01:07:22 145.880/145.840
Gurwin Techsat 1B 23 Jan 01:03:31 01:07:31 21° 91° (E) 01:11:30 435.225
PHONESAT 2.4 23 Jan 01:12:10 01:13:12 12° 164° (SSE) 01:14:15 2401.200-2431.200
POPSAT HIP 1 23 Jan 01:22:25 01:24:48 15° 299° (WNW) 01:27:11 437.405
ISS 23 Jan 01:24:10 01:27:11 34° 11° (N) 01:30:12 145.825
Cosmos 2491 23 Jan 01:26:08 01:34:32 56° 90° (E) 01:42:58 435.465 / 435.565
DUCHIFAT 1 23 Jan 01:29:44 01:31:59 14° 299° (WNW) 01:34:14 145.980
PCSat 23 Jan 01:31:51 01:36:50 36° 314° (NW) 01:41:50 145.827
NANOSAT C BR1 23 Jan 01:37:33 01:38:56 11° 301° (WNW) 01:40:20 145.865
ITUPSAT 1 23 Jan 01:39:25 01:44:08 65° 73° (ENE) 01:48:53 437.325
AIST 2 23 Jan 01:39:54 01:42:32 16° 33° (NNE) 01:45:09 435.215
AIST 1 23 Jan 01:40:50 01:44:02 21° 273° (W) 01:47:14
BEESAT 3 23 Jan 01:43:11 01:44:23 11° 251° (WSW) 01:45:35 437.485
MOZHAYETS 4 23 Jan 01:43:34 01:47:11 23° 64° (ENE) 01:50:51
M-CUBED/EXP-1 PRIME 23 Jan 01:46:22 01:48:52 16° 58° (ENE) 01:51:15 437.505
TISAT 1 23 Jan 01:48:36 01:51:47 21° 267° (W) 01:54:59 437.305
BUGSAT 1 23 Jan 01:52:07 01:55:00 19° 296° (WNW) 01:57:54 437.445
JAS-2 23 Jan 01:52:30 01:55:25 13° 311° (NW) 01:58:25 435.910
AO-7 23 Jan 01:54:00 01:57:26 13° 84° (E) 02:00:50 29.400- 29.500
Cosmos 2504 23 Jan 01:57:33 02:04:59 83° 264° (W) 02:12:07 435.465 / 435.565
KKS-1 23 Jan 02:04:13 02:06:24 14° 59° (ENE) 02:08:36 437.445
Oscar 19 23 Jan 02:05:36 02:10:45 65° 288° (WNW) 02:15:50 437.125/150
BEESAT 23 Jan 02:12:11 02:16:53 62° 258° (WSW) 02:21:39 436.000
SWISSCUBE 23 Jan 02:14:14 02:18:52 53° 259° (W) 02:23:34 437.505
AUBIESAT-1 23 Jan 02:19:29 02:22:54 26° 62° (ENE) 02:26:08 437.475
CUSAT 1 23 Jan 02:26:28 02:31:49 50° 91° (E) 02:38:34 437.405
RS-15 23 Jan 02:27:59 02:39:03 38° 338° (NNW) 02:50:20 29.354- 29.394
YUBILEINY 23 Jan 02:30:41 02:38:19 35° 277° (W) 02:45:54 435.215
CUBESAT XI-V 23 Jan 02:38:09 02:40:50 15° 59° (ENE) 02:43:31 437.345
Gurwin Techsat 1B 23 Jan 02:42:37 02:47:50 57° 289° (WNW) 02:53:02 435.225
PHONESAT 2.4 23 Jan 02:44:53 02:46:35 19° 181° (S) 02:48:16 2401.200-2431.200
STARS 23 Jan 02:48:32 02:51:24 17° 61° (ENE) 02:54:15 437.465
ITAMSAT 1 23 Jan 02:54:43 02:59:41 42° 99° (E) 03:04:37 435.822/435.867
ISS 23 Jan 03:00:38 03:03:53 76° 212° (SSW) 03:07:08 145.825
AIST 2 23 Jan 03:17:25 03:21:42 80° 53° (NE) 03:25:56 435.215
M-CUBED/EXP-1 PRIME 23 Jan 03:18:45 03:23:00 61° 253° (WSW) 03:26:57 437.505
ITUPSAT 1 23 Jan 03:19:31 03:22:26 16° 270° (W) 03:25:20 437.325
MOZHAYETS 4 23 Jan 03:19:46 03:24:06 42° 262° (W) 03:28:30
PCSat 23 Jan 03:20:15 03:21:55 11° 337° (NNW) 03:23:35 145.827
Cosmos 2491 23 Jan 03:23:53 03:31:45 37° 292° (WNW) 03:39:42 435.465 / 435.565
KKS-1 23 Jan 03:37:55 03:42:22 78° 255° (WSW) 03:46:50 437.445
AO-7 23 Jan 03:43:30 03:51:51 65° 105° (ESE) 04:00:06 29.400- 29.500
DANDE 23 Jan 03:46:22 03:50:33 67° 96° (E) 03:56:15 436.750
Oscar 19 23 Jan 03:47:55 03:49:04 11° 307° (NW) 03:50:13 437.125/150
Cosmos 2504 23 Jan 03:53:16 03:57:01 15° 285° (WNW) 04:00:44 435.465 / 435.565
AUBIESAT-1 23 Jan 03:53:28 03:57:13 32° 257° (WSW) 04:00:46 437.475
CUSAT 1 23 Jan 04:08:55 04:14:07 32° 297° (WNW) 04:20:24 437.405
Cosmos 2499 23 Jan 04:11:42 04:13:45 11° 52° (NE) 04:15:48 435.465 / 435.565
CUBESAT XI-V 23 Jan 04:12:54 04:17:36 75° 257° (WSW) 04:22:22 437.345
PHONESAT 2.4 23 Jan 04:19:04 04:19:56 12° 197° (SSW) 04:20:49 2401.200-2431.200
STARS 23 Jan 04:23:01 04:27:19 56° 259° (WSW) 04:31:38 437.465
ITAMSAT 1 23 Jan 04:34:32 04:38:58 29° 297° (WNW) 04:43:24 435.822/435.867
HORYU 2 23 Jan 04:36:53 04:39:44 16° 91° (E) 04:42:32 437.375
ISS 23 Jan 04:38:31 04:39:52 12° 227° (SW) 04:41:12 145.825
RS-15 23 Jan 04:45:08 04:56:04 34° 13° (NNE) 05:06:52 29.354- 29.394
O/OREOS (USA 219) 23 Jan 04:47:07 04:49:56 17° 100° (E) 04:52:46 437.305
GOMX 1 23 Jan 04:55:03 04:58:27 22° 92° (E) 05:01:43 467.674
AIST 2 23 Jan 04:57:43 04:59:34 13° 251° (WSW) 05:01:24 435.215
BRITE-PL 23 Jan 05:05:46 05:10:39 73° 101° (ESE) 05:15:06 437.365/2234.400
NOAA 15 23 Jan 05:09:50 05:12:57 16° 89° (E) 05:16:02 137.62
Cubesat XI-IV 23 Jan 05:11:35 05:14:43 16° 89° (E) 05:17:50 437.490
DOVE 4 23 Jan 05:19:25 05:21:47 15° 90° (E) 05:24:08 437.250
GONETS M04 23 Jan 05:21:02 05:28:48 33° 65° (ENE) 05:36:31
LilacSat-2 23 Jan 05:23:47 05:26:30 18° 92° (E) 05:29:12 437.200
DANDE 23 Jan 05:31:08 05:34:17 17° 305° (NW) 05:38:00 436.750
STRAND 1 23 Jan 05:33:27 05:37:48 29° 64° (ENE) 05:42:11 437.568
AO-7 23 Jan 05:36:50 05:44:09 35° 305° (NW) 05:51:25 29.400- 29.500
NOAA 18 23 Jan 05:40:22 05:43:30 15° 89° (E) 05:46:37 137.9125
Cosmos 2499 23 Jan 06:01:41 06:08:45 59° 76° (ENE) 06:15:42 435.465 / 435.565
HO-68 23 Jan 06:01:43 06:03:41 11° 83° (E) 06:05:41 435.675
CUTE-I 23 Jan 06:05:54 06:11:03 46° 99° (E) 06:16:10 437.470
HORYU 2 23 Jan 06:12:14 06:16:37 56° 288° (WNW) 06:20:59 437.375
O/OREOS (USA 219) 23 Jan 06:24:30 06:28:53 56° 298° (WNW) 06:33:19 437.305
CINEMA 3 23 Jan 06:25:22 06:28:17 18° 92° (E) 06:31:14 145.822/145.860
GOMX 1 23 Jan 06:32:40 06:36:44 37° 291° (WNW) 06:40:37 467.674
BRITE-PL 23 Jan 06:45:40 06:48:26 15° 302° (WNW) 06:51:05 437.365/2234.400
NOAA 15 23 Jan 06:47:59 06:53:20 77° 287° (WNW) 06:58:37 137.62
Cubesat XI-IV 23 Jan 06:50:02 06:55:24 78° 287° (WNW) 07:00:44 437.490
PCSat 23 Jan 06:50:51 06:54:08 16° 31° (NNE) 06:57:25 145.827
CUTE 1.7 + AOD 2 23 Jan 06:52:40 06:55:52 20° 92° (E) 06:59:02 437.475
DOVE 4 23 Jan 06:55:47 06:59:52 52° 288° (WNW) 07:03:53 437.250
LilacSat-2 23 Jan 06:57:19 07:00:56 38° 289° (WNW) 07:04:32 437.200
RS-15 23 Jan 06:59:18 07:11:39 63° 44° (NE) 07:23:34 29.354- 29.394
CUBEBUG 2 23 Jan 07:00:56 07:02:02 11° 88° (E) 07:03:08 437.445
STRAND 1 23 Jan 07:12:04 07:16:50 40° 262° (W) 07:21:39 437.568
GONETS M04 23 Jan 07:17:32 07:26:15 65° 267° (W) 07:34:57
NOAA 18 23 Jan 07:19:20 07:24:48 81° 288° (WNW) 07:30:16 137.9125
CANX-2 23 Jan 07:21:54 07:26:04 46° 99° (E) 07:30:11 2200.000
UWE-3 23 Jan 07:22:15 07:23:57 12° 88° (E) 07:25:39 435.000/436.395/437.385
SO-50 23 Jan 07:22:16 07:26:58 73° 124° (SE) 07:31:37 436.795
COMPASS 1 23 Jan 07:26:25 07:29:34 20° 92° (E) 07:32:42 437.405
SEEDS 23 Jan 07:26:37 07:30:23 30° 95° (E) 07:34:08 437.485
AO-7 23 Jan 07:33:26 07:34:25 10° 330° (NNW) 07:35:24 29.400- 29.500
AAUSAT CUBESAT 2 23 Jan 07:34:34 07:37:35 19° 92° (E) 07:40:35 437.432
HO-68 23 Jan 07:45:40 07:52:50 64° 103° (ESE) 07:59:55 435.675
CUTE-I 23 Jan 07:46:23 07:50:51 28° 297° (WNW) 07:55:19 437.470
UNISAT 6 23 Jan 07:51:33 07:53:11 12° 59° (ENE) 07:54:48 437.425
Cosmos 2499 23 Jan 07:55:39 08:01:19 26° 277° (W) 08:06:57 435.465 / 435.565
CINEMA 3 23 Jan 08:01:38 08:05:39 45° 288° (WNW) 08:09:46 145.822/145.860
TIGRISAT 23 Jan 08:03:06 08:05:26 14° 60° (ENE) 08:07:45 435.000
PRISM 23 Jan 08:03:26 08:07:25 45° 70° (ENE) 08:11:24 437.425
Oscar 11 23 Jan 08:03:37 08:06:22 16° 90° (E) 08:09:07 145.826/435.025
ANTELSAT 23 Jan 08:18:07 08:21:19 21° 64° (ENE) 08:24:33 437.575/2403.000
CUTE 1.7 + AOD 2 23 Jan 08:27:49 08:31:53 42° 289° (WNW) 08:35:55 437.475
NOAA 15 23 Jan 08:29:48 08:32:14 13° 306° (NW) 08:34:38 137.62
Cubesat XI-IV 23 Jan 08:32:09 08:34:36 13° 306° (NW) 08:37:04 437.490
PCSat 23 Jan 08:33:17 08:38:41 61° 54° (NE) 08:44:03 145.827
CUBEBUG 2 23 Jan 08:34:48 08:39:10 82° 286° (WNW) 08:43:40 437.445
JAS-2 23 Jan 08:37:30 08:41:16 19° 54° (NE) 08:45:17 435.910
FUNcube-1 23 Jan 08:43:04 08:47:18 45° 99° (E) 08:51:36 145.935
HUMSAT D 23 Jan 08:53:32 08:54:18 10° 87° (E) 08:55:03 437.325/437.525
UWE-3 23 Jan 08:56:30 09:00:54 76° 284° (WNW) 09:05:23 435.000/436.395/437.385
CANX-2 23 Jan 08:58:29 09:01:36 20° 296° (WNW) 09:04:42 2200.000
COMPASS 1 23 Jan 09:01:20 09:05:17 40° 290° (WNW) 09:09:12 437.405
NOAA 18 23 Jan 09:01:49 09:04:38 14° 306° (NW) 09:07:26 137.9125
SEEDS 23 Jan 09:02:22 09:06:00 28° 293° (WNW) 09:09:37 437.485
SO-50 23 Jan 09:04:14 09:07:55 22° 324° (NW) 09:11:33 436.795
ZACube-1 23 Jan 09:07:57 09:12:23 88° 103° (ESE) 09:16:53 437.345
AAUSAT CUBESAT 2 23 Jan 09:09:17 09:13:15 42° 289° (WNW) 09:17:10 437.432
RS-15 23 Jan 09:12:23 09:23:54 49° 249° (WSW) 09:35:00 29.354- 29.394
GONETS M04 23 Jan 09:17:33 09:21:12 13° 289° (WNW) 09:24:52
NANOSAT C BR1 23 Jan 09:22:37 09:22:55 10° 58° (ENE) 09:23:13 145.865
UNISAT 6 23 Jan 09:25:00 09:29:16 81° 259° (W) 09:33:34 437.425
HO-68 23 Jan 09:34:03 09:40:06 30° 303° (WNW) 09:46:06 435.675
TIGRISAT 23 Jan 09:37:25 09:41:37 65° 258° (WSW) 09:45:52 435.000
Oscar 11 23 Jan 09:38:34 09:42:50 54° 288° (WNW) 09:47:05 145.826/435.025
PRISM 23 Jan 09:40:02 09:42:55 18° 268° (W) 09:45:48 437.425
ANTELSAT 23 Jan 09:53:47 09:57:47 41° 262° (W) 10:01:51 437.575/2403.000
DELFI C3 23 Jan 09:57:43 10:01:44 90° 309° (NW) 10:05:42 145.870
QB50P1 23 Jan 10:13:01 10:16:48 34° 69° (ENE) 10:20:36 145.935-145.965
CUBEBUG 2 23 Jan 10:14:21 10:15:07 10° 302° (WNW) 10:15:53 437.445
PCSat 23 Jan 10:17:29 10:21:38 23° 253° (WSW) 10:25:49 145.827
POLYITAN 1 23 Jan 10:18:07 10:22:00 38° 70° (ENE) 10:25:54 437.675
QB50P2 23 Jan 10:19:24 10:23:22 42° 70° (ENE) 10:27:21 145.880/145.840
FUNcube-1 23 Jan 10:19:57 10:23:16 21° 295° (WNW) 10:26:37 145.935
JAS-2 23 Jan 10:20:02 10:25:29 81° 256° (WSW) 10:31:37 435.910
HUMSAT D 23 Jan 10:26:08 10:30:28 82° 284° (WNW) 10:34:46 437.325/437.525
ESTCUBE 1 23 Jan 10:36:11 10:39:22 19° 91° (E) 10:42:33 437.505/2401.250
POPSAT HIP 1 23 Jan 10:39:51 10:43:59 64° 74° (ENE) 10:48:09 437.405
ZACube-1 23 Jan 10:46:22 10:48:02 12° 301° (WNW) 10:49:43 437.345
DUCHIFAT 1 23 Jan 10:46:30 10:50:37 65° 73° (ENE) 10:54:45 145.980
NANOSAT C BR1 23 Jan 10:53:45 10:57:55 85° 79° (ENE) 11:02:08 145.865
BY70-1 23 Jan 10:55:06 10:58:15 47° 99° (E) 11:01:10 436.1900
BUGSAT 1 23 Jan 11:08:00 11:11:47 40° 71° (ENE) 11:15:34 437.445
CUBEBUG 1 23 Jan 11:10:56 11:14:27 24° 94° (E) 11:17:56 437.445
CUSAT 1 23 Jan 11:16:40 11:20:05 13° 49° (NE) 11:23:26 437.405
